timestamp,wind_dir_avg,wind_spd_avg,wind_spd_max_dir,wind_spd_gust,battery_voltage,lat,long
2023-09-10 00:04:00+00:00,227.0,4.41,238.0,6.03,12.49,47.59359,-54.27349
2023-09-10 00:14:01+00:00,219.0,4.45,232.0,5.31,12.49,47.59359,-54.27349
2023-09-10 00:24:01+00:00,219.0,4.52,231.0,5.73,12.49,47.59359,-54.27349
2023-09-10 00:34:01+00:00,229.0,4.85,236.0,5.99,12.49,47.59359,-54.27349
2023-09-10 00:44:01+00:00,221.0,4.84,232.0,6.14,12.49,47.59359,-54.27349
2023-09-10 00:54:01+00:00,220.0,4.89,234.0,5.9,12.49,47.59359,-54.27349
2023-09-10 01:04:01+00:00,213.0,4.95,212.0,5.41,12.49,47.59359,-54.27349
2023-09-10 01:14:01+00:00,218.0,4.52,227.0,5.45,12.41,47.59359,-54.27349
2023-09-10 01:24:01+00:00,217.0,4.72,230.0,5.43,12.41,47.59359,-54.27349
2023-09-10 01:34:01+00:00,220.0,4.83,223.0,5.23,12.41,47.59359,-54.27349
2023-09-10 01:44:01+00:00,225.0,5.18,225.0,5.62,12.41,47.59359,-54.27349
2023-09-10 01:54:01+00:00,225.0,4.67,220.0,5.16,12.41,47.59359,-54.27349
2023-09-10 02:04:01+00:00,221.0,4.95,220.0,5.45,12.41,47.59359,-54.27349
2023-09-10 02:14:01+00:00,224.0,4.42,232.0,5.39,12.41,47.59359,-54.27349
2023-09-10 02:24:01+00:00,232.0,4.96,241.0,6.11,12.41,47.59359,-54.27349
2023-09-10 02:34:01+00:00,243.0,4.91,245.0,6.33,12.41,47.59359,-54.27349
2023-09-10 02:44:01+00:00,244.0,5.51,250.0,6.64,12.41,47.59359,-54.27349
2023-09-10 02:54:01+00:00,238.0,4.45,244.0,5.03,12.41,47.59359,-54.27349
2023-09-10 03:04:01+00:00,233.0,4.5,231.0,4.91,12.41,47.59359,-54.27349
2023-09-10 03:14:01+00:00,228.0,4.28,226.0,5.04,12.41,47.59359,-54.27349
2023-09-10 03:24:01+00:00,228.0,4.3,224.0,5.15,12.41,47.59359,-54.27349
2023-09-10 03:34:01+00:00,228.0,4.8,224.0,5.41,12.41,47.59359,-54.27349
2023-09-10 03:44:01+00:00,230.0,4.73,228.0,5.39,12.41,47.59359,-54.27349
2023-09-10 03:54:01+00:00,226.0,4.72,232.0,5.42,12.41,47.59359,-54.27349
2023-09-10 04:04:01+00:00,227.0,4.19,223.0,5.13,12.41,47.59359,-54.27349
2023-09-10 04:14:01+00:00,221.0,4.71,227.0,5.58,12.41,47.59359,-54.27349
2023-09-10 04:24:01+00:00,216.0,5.26,223.0,6.36,12.41,47.59359,-54.27349
2023-09-10 04:34:01+00:00,214.0,5.89,221.0,6.71,12.41,47.59359,-54.27349
2023-09-10 04:44:01+00:00,217.0,5.42,220.0,6.01,12.41,47.59359,-54.27349
2023-09-10 04:54:01+00:00,222.0,5.84,223.0,6.33,12.41,47.59359,-54.27349
2023-09-10 05:04:01+00:00,234.0,4.78,240.0,5.75,12.41,47.59359,-54.27349
2023-09-10 05:14:00+00:00,222.0,5.18,221.0,5.68,12.41,47.59359,-54.27349
2023-09-10 05:24:00+00:00,230.0,3.96,233.0,4.84,12.41,47.59359,-54.27349
2023-09-10 05:34:00+00:00,230.0,5.34,228.0,5.91,12.41,47.59359,-54.27349
2023-09-10 05:44:00+00:00,218.0,4.86,217.0,5.45,12.41,47.59359,-54.27349
2023-09-10 05:54:00+00:00,217.0,4.29,220.0,4.66,12.41,47.59359,-54.27349
2023-09-10 06:04:00+00:00,220.0,3.73,226.0,4.35,12.41,47.59359,-54.27349
2023-09-10 06:14:00+00:00,218.0,4.11,232.0,5.29,12.41,47.59359,-54.27349
2023-09-10 06:24:00+00:00,218.0,4.54,228.0,5.43,12.41,47.59359,-54.27349
2023-09-10 06:34:00+00:00,208.0,3.02,234.0,4.68,12.41,47.59359,-54.27349
2023-09-10 06:44:00+00:00,196.0,2.85,197.0,3.27,12.41,47.59359,-54.27349
2023-09-10 06:54:00+00:00,217.0,4.46,222.0,5.5,12.41,47.59359,-54.27349
2023-09-10 07:04:00+00:00,214.0,4.43,226.0,5.11,12.41,47.59359,-54.27349
2023-09-10 07:14:01+00:00,210.0,4.77,213.0,5.19,12.33,47.59359,-54.27349
2023-09-10 07:24:01+00:00,218.0,3.99,227.0,4.6,12.33,47.59359,-54.27349
2023-09-10 07:34:01+00:00,226.0,4.29,231.0,4.83,12.33,47.59359,-54.27349
2023-09-10 07:44:01+00:00,230.0,4.49,236.0,4.9,12.33,47.59359,-54.27349
2023-09-10 07:54:01+00:00,231.0,4.81,236.0,5.46,12.33,47.59359,-54.27349
2023-09-10 08:04:01+00:00,229.0,6.0,239.0,6.77,12.33,47.59359,-54.27349
2023-09-10 08:14:01+00:00,228.0,5.25,223.0,5.84,12.33,47.59359,-54.27349
2023-09-10 08:24:01+00:00,236.0,6.19,240.0,6.97,12.33,47.59359,-54.27349
2023-09-10 08:34:01+00:00,234.0,5.76,238.0,6.34,12.33,47.59359,-54.27349
2023-09-10 08:44:01+00:00,233.0,5.42,232.0,6.12,12.33,47.59359,-54.27349
2023-09-10 08:54:01+00:00,226.0,4.94,232.0,6.0,12.33,47.59359,-54.27349
2023-09-10 09:04:01+00:00,228.0,4.82,230.0,5.41,12.33,47.59359,-54.27349
2023-09-10 09:14:01+00:00,234.0,4.23,243.0,5.43,12.25,47.59359,-54.27349
2023-09-10 09:24:01+00:00,234.0,4.74,235.0,5.05,12.25,47.59359,-54.27349
2023-09-10 09:34:01+00:00,237.0,5.01,248.0,6.67,12.25,47.59359,-54.27349
2023-09-10 09:44:01+00:00,242.0,6.73,244.0,7.14,12.25,47.59359,-54.27349
2023-09-10 09:54:01+00:00,241.0,6.06,242.0,6.78,12.25,47.59359,-54.27349
2023-09-10 10:04:01+00:00,238.0,6.38,242.0,7.12,12.25,47.59359,-54.27349
2023-09-10 10:14:00+00:00,235.0,5.94,242.0,7.1,12.25,47.59359,-54.27349
2023-09-10 10:24:00+00:00,225.0,4.52,228.0,5.35,12.25,47.59359,-54.27349
2023-09-10 10:34:00+00:00,231.0,4.0,248.0,5.49,12.25,47.59359,-54.27349
2023-09-10 10:44:00+00:00,227.0,4.75,238.0,6.55,12.25,47.59359,-54.27349
2023-09-10 10:54:00+00:00,222.0,4.04,232.0,5.22,12.25,47.59359,-54.27349
2023-09-10 11:04:00+00:00,201.0,3.85,223.0,4.89,12.25,47.59359,-54.27349
2023-09-10 11:14:01+00:00,200.0,5.04,206.0,5.53,12.81,47.59359,-54.27349
2023-09-10 11:24:01+00:00,205.0,4.63,210.0,5.22,12.81,47.59359,-54.27349
2023-09-10 11:34:01+00:00,199.0,4.16,204.0,4.63,12.81,47.59359,-54.27349
2023-09-10 11:44:01+00:00,208.0,4.48,217.0,5.39,12.81,47.59359,-54.27349
2023-09-10 11:54:01+00:00,189.0,4.09,192.0,4.76,12.81,47.59359,-54.27349
2023-09-10 12:04:01+00:00,209.0,4.8,209.0,5.34,12.81,47.59359,-54.27349
2023-09-10 12:14:00+00:00,209.0,5.7,208.0,6.52,13.21,47.59359,-54.27349
2023-09-10 12:24:00+00:00,207.0,5.93,210.0,6.67,13.21,47.59359,-54.27349
2023-09-10 12:34:00+00:00,207.0,5.75,208.0,6.69,13.21,47.59359,-54.27349
2023-09-10 12:44:00+00:00,204.0,5.62,209.0,6.36,13.21,47.59359,-54.27349
2023-09-10 12:54:00+00:00,205.0,6.22,213.0,7.17,13.21,47.59359,-54.27349
2023-09-10 13:04:00+00:00,205.0,6.81,206.0,7.42,13.21,47.59359,-54.27349
2023-09-10 13:14:00+00:00,208.0,6.77,210.0,7.47,13.53,47.59359,-54.27349
2023-09-10 13:24:00+00:00,210.0,6.66,210.0,7.29,13.53,47.59359,-54.27349
2023-09-10 13:34:00+00:00,207.0,7.04,204.0,8.21,13.53,47.59359,-54.27349
2023-09-10 13:44:00+00:00,204.0,6.55,203.0,7.23,13.53,47.59359,-54.27349
2023-09-10 13:54:00+00:00,206.0,6.15,206.0,7.25,13.53,47.59359,-54.27349
2023-09-10 14:04:00+00:00,209.0,6.23,215.0,6.79,13.53,47.59359,-54.27349
2023-09-10 14:14:01+00:00,212.0,6.2,215.0,7.03,13.53,47.59359,-54.27349
2023-09-10 14:24:01+00:00,209.0,6.5,210.0,7.59,13.53,47.59359,-54.27349
2023-09-10 14:34:01+00:00,212.0,7.54,214.0,8.17,13.53,47.59359,-54.27349
2023-09-10 14:44:01+00:00,210.0,7.74,214.0,8.96,13.53,47.59359,-54.27349
2023-09-10 14:54:01+00:00,209.0,8.37,209.0,8.99,13.53,47.59359,-54.27349
2023-09-10 15:04:01+00:00,205.0,8.03,206.0,8.7,13.53,47.59359,-54.27349
2023-09-10 15:14:00+00:00,207.0,8.37,212.0,9.35,13.53,47.59359,-54.27349
2023-09-10 15:24:00+00:00,204.0,8.23,204.0,8.97,13.53,47.59359,-54.27349
2023-09-10 15:34:00+00:00,207.0,7.88,211.0,9.08,13.53,47.59359,-54.27349
2023-09-10 15:44:00+00:00,209.0,8.2,214.0,9.26,13.53,47.59359,-54.27349
2023-09-10 15:54:00+00:00,207.0,8.67,204.0,9.69,13.53,47.59359,-54.27349
2023-09-10 16:04:00+00:00,209.0,7.74,206.0,8.87,13.53,47.59359,-54.27349
2023-09-10 16:14:00+00:00,210.0,8.07,214.0,8.79,14.32,47.59359,-54.27349
2023-09-10 16:24:00+00:00,208.0,7.74,205.0,8.65,14.32,47.59359,-54.27349
2023-09-10 16:34:00+00:00,203.0,7.38,207.0,8.25,14.32,47.59359,-54.27349
2023-09-10 16:44:00+00:00,205.0,7.6,207.0,8.52,14.32,47.59359,-54.27349
2023-09-10 16:54:00+00:00,203.0,7.71,205.0,8.51,14.32,47.59359,-54.27349
2023-09-10 17:04:00+00:00,207.0,7.71,203.0,8.42,14.32,47.59359,-54.27349
2023-09-10 17:14:01+00:00,210.0,7.28,210.0,8.05,13.6,47.59359,-54.27349
2023-09-10 17:24:01+00:00,214.0,6.79,215.0,7.66,13.6,47.59359,-54.27349
2023-09-10 17:34:01+00:00,214.0,7.57,214.0,8.37,13.6,47.59359,-54.27349
2023-09-10 17:44:01+00:00,210.0,7.33,214.0,8.29,13.6,47.59359,-54.27349
2023-09-10 17:54:01+00:00,208.0,6.67,212.0,7.58,13.6,47.59359,-54.27349
2023-09-10 18:04:01+00:00,211.0,7.31,207.0,8.07,13.6,47.59359,-54.27349
2023-09-10 18:14:00+00:00,210.0,7.09,208.0,7.67,14.08,47.59359,-54.27349
2023-09-10 18:24:00+00:00,208.0,6.56,209.0,7.27,14.08,47.59359,-54.27349
2023-09-10 18:34:00+00:00,213.0,6.6,212.0,7.72,14.08,47.59359,-54.27349
2023-09-10 18:44:00+00:00,217.0,6.49,217.0,7.09,14.08,47.59359,-54.27349
2023-09-10 18:54:00+00:00,212.0,7.73,212.0,8.65,14.08,47.59359,-54.27349
2023-09-10 19:04:00+00:00,211.0,7.43,215.0,8.47,14.08,47.59359,-54.27349
2023-09-10 19:14:00+00:00,212.0,7.71,212.0,9.22,13.68,47.59359,-54.27349
2023-09-10 19:24:00+00:00,210.0,7.23,213.0,8.71,13.68,47.59359,-54.27349
2023-09-10 19:34:00+00:00,209.0,7.08,208.0,7.94,13.68,47.59359,-54.27349
2023-09-10 19:44:00+00:00,210.0,6.92,212.0,7.77,13.68,47.59359,-54.27349
2023-09-10 19:54:00+00:00,209.0,6.73,212.0,7.34,13.68,47.59359,-54.27349
2023-09-10 20:04:00+00:00,208.0,7.54,210.0,8.53,13.68,47.59359,-54.27349
2023-09-10 20:14:00+00:00,212.0,7.36,212.0,8.51,13.68,47.59359,-54.27349
2023-09-10 20:24:00+00:00,210.0,7.19,214.0,7.83,13.68,47.59359,-54.27349
2023-09-10 20:34:00+00:00,206.0,7.04,208.0,7.78,13.68,47.59359,-54.27349
2023-09-10 20:44:00+00:00,209.0,7.17,214.0,7.8,13.68,47.59359,-54.27349
2023-09-10 20:54:00+00:00,209.0,7.01,209.0,7.73,13.68,47.59359,-54.27349
2023-09-10 21:04:00+00:00,217.0,7.17,216.0,7.88,13.68,47.59359,-54.27349
2023-09-10 21:14:00+00:00,218.0,7.19,217.0,7.9,13.13,47.59359,-54.27349
2023-09-10 21:24:00+00:00,215.0,6.41,211.0,7.33,13.13,47.59359,-54.27349
2023-09-10 21:34:00+00:00,215.0,5.88,215.0,6.29,13.13,47.59359,-54.27349
2023-09-10 21:44:00+00:00,214.0,5.83,216.0,6.82,13.13,47.59359,-54.27349
2023-09-10 21:54:00+00:00,215.0,7.21,213.0,8.12,13.13,47.59359,-54.27349
2023-09-10 22:04:00+00:00,211.0,7.19,213.0,7.74,13.13,47.59359,-54.27349
2023-09-10 22:14:01+00:00,217.0,6.19,218.0,6.99,12.57,47.59359,-54.27349
2023-09-10 22:24:01+00:00,214.0,6.54,214.0,7.29,12.57,47.59359,-54.27349
2023-09-10 22:34:01+00:00,211.0,6.77,212.0,7.26,12.57,47.59359,-54.27349
2023-09-10 22:44:01+00:00,215.0,6.21,213.0,6.85,12.57,47.59359,-54.27349
2023-09-10 22:54:01+00:00,214.0,6.09,214.0,6.91,12.57,47.59359,-54.27349
2023-09-10 23:04:01+00:00,214.0,6.41,213.0,6.86,12.57,47.59359,-54.27349
2023-09-10 23:14:00+00:00,213.0,7.04,211.0,7.55,12.49,47.59359,-54.27349
2023-09-10 23:24:00+00:00,210.0,7.21,211.0,8.03,12.49,47.59359,-54.27349
2023-09-10 23:34:00+00:00,215.0,5.55,212.0,6.29,12.49,47.59359,-54.27349
2023-09-10 23:44:00+00:00,219.0,4.9,217.0,5.73,12.49,47.59359,-54.27349
2023-09-10 23:54:00+00:00,225.0,5.58,232.0,6.82,12.49,47.59359,-54.27349
